| time (UTC) | temp C | wind direction | speed KPH | gust KPH | rain 1hr cm | rain 24hr cm | rain mn cm | humidity % | barometer mb |
| 20260906070004 | 15 | 253 | 0.0 | 1.6 | 0.05 | 0.10 | 0.05 | 100 | 1011.5 |
| 20260906065003 | 15 | 300 | 1.6 | 3.2 | 0.00 | 0.05 | 0.00 | 100 | 1011.4 |
| 20260906064504 | 15 | 333 | 0.0 | 1.6 | 0.00 | 0.05 | 0.00 | 100 | 1011.4 |
| 20260906064004 | 15 | 280 | 0.0 | 1.6 | 0.00 | 0.05 | 0.00 | 100 | 1011.4 |
| 20260906063503 | 15 | 332 | 1.6 | 3.2 | 0.00 | 0.05 | 0.00 | 100 | 1011.6 |
| 20260906063004 | 15 | 312 | 1.6 | 3.2 | 0.00 | 0.05 | 0.00 | 100 | 1011.7 |
| 20260906062504 | 15 | 257 | 1.6 | 3.2 | 0.00 | 0.05 | 0.00 | 100 | 1011.6 |
| 20260906062003 | 15 | 270 | 1.6 | 4.8 | 0.00 | 0.05 | 0.00 | 100 | 1011.6 |
| 20260906061504 | 15 | 318 | 1.6 | 3.2 | 0.00 | 0.05 | 0.00 | 100 | 1011.6 |
| 20260906061004 | 15 | 262 | 0.0 | 1.6 | 0.00 | 0.05 | 0.00 | 100 | 1011.6 |
| 20260906060503 | 15 | 264 | 0.0 | 1.6 | 0.00 | 0.05 | 0.00 | 100 | 1011.4 |
| 20260906060004 | 15 | 271 | 0.0 | 1.6 | 0.00 | 0.05 | 0.00 | 100 | 1011.5 |
| 20260906055503 | 15 | 283 | 0.0 | 1.6 | 0.00 | 0.05 | 0.00 | 100 | 1011.5 |
| 20260906055003 | 15 | 244 | 0.0 | 3.2 | 0.00 | 0.05 | 0.00 | 100 | 1011.5 |
| 20260906054504 | 15 | 316 | 0.0 | 1.6 | 0.00 | 0.05 | 0.00 | 100 | 1011.5 |
| 20260906054004 | 15 | 255 | 0.0 | 1.6 | 0.00 | 0.05 | 0.00 | 100 | 1011.5 |
| 20260906053504 | 15 | 292 | 0.0 | 1.6 | 0.00 | 0.05 | 0.00 | 100 | 1011.6 |
| 20260906052504 | 15 | 308 | 1.6 | 1.6 | 0.00 | 0.05 | 0.00 | 100 | 1011.6 |
| 20260906052004 | 15 | 275 | 0.0 | 1.6 | 0.00 | 0.05 | 0.00 | 100 | 1011.7 |
| 20260906051503 | 15 | 275 | 0.0 | 1.6 | 0.00 | 0.05 | 0.00 | 100 | 1011.7 |
| 20260906051004 | 15 | 262 | 1.6 | 3.2 | 0.00 | 0.05 | 0.00 | 100 | 1011.7 |
| 20260906050503 | 15 | 290 | 1.6 | 1.6 | 0.00 | 0.05 | 0.00 | 100 | 1011.9 |
| 20260906050024 | 15 | 260 | 0.0 | 3.2 | 0.00 | 0.05 | 0.00 | 100 | 1011.9 |
| 20260906045523 | 15 | 268 | 1.6 | 3.2 | 0.00 | 0.05 | 0.00 | 100 | 1011.8 |
| 20260906045024 | 15 | 247 | 0.0 | 3.2 | 0.00 | 0.05 | 0.00 | 100 | 1011.8 |
| 20260906044523 | 15 | 264 | 0.0 | 3.2 | 0.00 | 0.05 | 0.00 | 100 | 1011.8 |
| 20260906044023 | 15 | 247 | 1.6 | 4.8 | 0.00 | 0.05 | 0.00 | 100 | 1011.8 |
| 20260906043023 | 15 | 289 | 1.6 | 4.8 | 0.00 | 0.05 | 0.00 | 100 | 1011.7 |
| 20260906042524 | 15 | 245 | 0.0 | 4.8 | 0.00 | 0.05 | 0.00 | 100 | 1011.7 |
| 20260906042023 | 15 | 149 | 3.2 | 4.8 | 0.00 | 0.05 | 0.00 | 100 | 1011.7 |
| 20260906041523 | 15 | 281 | 1.6 | 3.2 | 0.00 | 0.05 | 0.00 | 100 | 1011.7 |
| 20260906041023 | 15 | 246 | 0.0 | 3.2 | 0.00 | 0.05 | 0.00 | 100 | 1011.6 |
| 20260906040523 | 15 | 321 | 0.0 | 3.2 | 0.00 | 0.05 | 0.00 | 100 | 1011.7 |
| 20260906040023 | 15 | 325 | 0.0 | 1.6 | 0.00 | 0.05 | 0.00 | 100 | 1011.7 |
| 20260906035524 | 16 | 259 | 0.0 | 0.0 | 0.00 | 0.05 | 0.05 | 100 | 1011.6 |
| 20260906035023 | 16 | 244 | 0.0 | 1.6 | 0.00 | 0.05 | 0.05 | 100 | 1011.5 |
| 20260906034524 | 16 | 249 | 0.0 | 1.6 | 0.00 | 0.05 | 0.05 | 100 | 1011.5 |
| 20260906034023 | 16 | 210 | 0.0 | 1.6 | 0.00 | 0.05 | 0.05 | 100 | 1011.4 |
| 20260906033523 | 16 | 230 | 0.0 | 0.0 | 0.00 | 0.05 | 0.05 | 100 | 1011.4 |
| 20260906033024 | 16 | 293 | 0.0 | 3.2 | 0.00 | 0.05 | 0.05 | 100 | 1011.4 |
| 20260906032523 | 16 | 251 | 0.0 | 1.6 | 0.00 | 0.05 | 0.05 | 100 | 1011.3 |
| 20260906032023 | 16 | 242 | 0.0 | 3.2 | 0.00 | 0.05 | 0.05 | 100 | 1011.4 |
| 20260906031524 | 16 | 253 | 0.0 | 3.2 | 0.00 | 0.05 | 0.05 | 100 | 1011.5 |
| 20260906030523 | 16 | 247 | 0.0 | 1.6 | 0.00 | 0.05 | 0.05 | 100 | 1011.4 |
| 20260906025023 | 16 | 227 | 0.0 | 1.6 | 0.00 | 0.05 | 0.05 | 100 | 1011.4 |
| 20260906024523 | 16 | 264 | 0.0 | 1.6 | 0.00 | 0.05 | 0.05 | 100 | 1011.4 |
| 20260906024023 | 16 | 248 | 0.0 | 1.6 | 0.00 | 0.05 | 0.05 | 100 | 1011.5 |
| 20260906023523 | 16 | 257 | 1.6 | 3.2 | 0.00 | 0.05 | 0.05 | 100 | 1011.5 |
| 20260906023023 | 16 | 227 | 0.0 | 0.0 | 0.00 | 0.05 | 0.05 | 100 | 1011.4 |
| 20260906022523 | 16 | 23 | 1.6 | 3.2 | 0.00 | 0.05 | 0.05 | 100 | 1011.4 |
| 20260906022024 | 16 | 53 | 0.0 | 1.6 | 0.00 | 0.05 | 0.05 | 100 | 1011.4 |
| 20260906021523 | 16 | 274 | 0.0 | 1.6 | 0.00 | 0.05 | 0.05 | 100 | 1011.4 |
| 20260906021023 | 16 | 278 | 0.0 | 0.0 | 0.00 | 0.05 | 0.05 | 100 | 1011.3 |
| 20260906020023 | 16 | 225 | 0.0 | 0.0 | 0.00 | 0.05 | 0.05 | 100 | 1011.2 |
| 20260906014523 | 16 | 215 | 0.0 | 0.0 | 0.00 | 0.05 | 0.05 | 100 | 1011.3 |
| 20260906014023 | 16 | 233 | 0.0 | 0.0 | 0.00 | 0.05 | 0.05 | 100 | 1011.4 |
| 20260906013523 | 15 | 227 | 0.0 | 0.0 | 0.00 | 0.05 | 0.05 | 100 | 1011.4 |
| 20260906012523 | 16 | 249 | 0.0 | 0.0 | 0.00 | 0.05 | 0.05 | 100 | 1011.5 |
| 20260906012023 | 16 | 217 | 0.0 | 0.0 | 0.00 | 0.05 | 0.05 | 100 | 1011.5 |
| 20260906011522 | 16 | 249 | 0.0 | 0.0 | 0.00 | 0.05 | 0.05 | 100 | 1011.4 |
| 20260906010023 | 16 | 231 | 1.6 | 1.6 | 0.05 | 0.05 | 0.05 | 100 | 1011.4 |
| 20260906005523 | 16 | 242 | 0.0 | 1.6 | 0.05 | 0.05 | 0.05 | 100 | 1011.3 |
| 20260906005023 | 16 | 231 | 0.0 | 0.0 | 0.05 | 0.05 | 0.05 | 100 | 1011.3 |
| 20260906004523 | 16 | 257 | 0.0 | 0.0 | 0.05 | 0.05 | 0.05 | 100 | 1011.4 |
| 20260906004023 | 16 | 238 | 0.0 | 0.0 | 0.05 | 0.05 | 0.05 | 100 | 1011.3 |
| 20260906003523 | 16 | 216 | 0.0 | 0.0 | 0.05 | 0.05 | 0.05 | 100 | 1011.3 |
| 20260906003023 | 16 | 217 | 0.0 | 0.0 | 0.05 | 0.05 | 0.05 | 100 | 1011.2 |
| 20260906002523 | 16 | 250 | 0.0 | 0.0 | 0.05 | 0.05 | 0.05 | 100 | 1011.2 |
| 20260906002023 | 16 | 239 | 0.0 | 0.0 | 0.05 | 0.05 | 0.05 | 100 | 1011.2 |
| 20260906001523 | 16 | 228 | 0.0 | 0.0 | 0.05 | 0.05 | 0.05 | 98 | 1011.2 |
| 20260906001023 | 16 | 251 | 1.6 | 1.6 | 0.05 | 0.05 | 0.05 | 98 | 1011.1 |
| 20260906000522 | 16 | 243 | 0.0 | 0.0 | 0.05 | 0.05 | 0.05 | 97 | 1011.1 |
| 20260906000023 | 16 | 232 | 0.0 | 0.0 | 0.00 | 0.00 | 0.00 | 96 | 1011.0 |
| 20260905235523 | 16 | 203 | 0.0 | 0.0 | 0.00 | 0.00 | 0.00 | 95 | 1010.9 |
| 20260905235023 | 16 | 208 | 0.0 | 0.0 | 0.00 | 0.00 | 0.00 | 95 | 1010.8 |
| 20260905234522 | 16 | 208 | 0.0 | 0.0 | 0.00 | 0.00 | 0.00 | 93 | 1010.8 |
| 20260905234023 | 16 | 215 | 0.0 | 0.0 | 0.00 | 0.00 | 0.00 | 91 | 1010.8 |
| 20260905233522 | 16 | 215 | 0.0 | 0.0 | 0.00 | 0.00 | 0.00 | 90 | 1010.8 |
| 20260905232523 | 17 | 239 | 0.0 | 1.6 | 0.00 | 0.00 | 0.00 | 86 | 1010.7 |
| 20260905232022 | 17 | 100 | 0.0 | 3.2 | 0.00 | 0.00 | 0.00 | 85 | 1010.7 |
| 20260905231522 | 17 | 41 | 1.6 | 1.6 | 0.00 | 0.00 | 0.00 | 85 | 1010.6 |
| 20260905231022 | 17 | 160 | 0.0 | 1.6 | 0.00 | 0.00 | 0.00 | 84 | 1010.5 |
| 20260905230522 | 17 | 108 | 0.0 | 4.8 | 0.00 | 0.00 | 0.00 | 84 | 1010.5 |
| 20260905230023 | 17 | 55 | 1.6 | 1.6 | 0.00 | 0.00 | 0.00 | 85 | 1010.4 |
| 20260905225522 | 17 | 233 | 0.0 | 1.6 | 0.00 | 0.00 | 0.00 | 84 | 1010.3 |
| 20260905225022 | 17 | 55 | 1.6 | 3.2 | 0.00 | 0.00 | 0.00 | 84 | 1010.3 |
| 20260905224522 | 17 | 36 | 1.6 | 4.8 | 0.00 | 0.00 | 0.00 | 85 | 1010.4 |
| 20260905224022 | 17 | 81 | 0.0 | 3.2 | 0.00 | 0.00 | 0.00 | 84 | 1010.4 |
| 20260905223522 | 17 | 111 | 3.2 | 8.0 | 0.00 | 0.00 | 0.00 | 84 | 1010.4 |
| 20260905223023 | 17 | 133 | 3.2 | 4.8 | 0.00 | 0.00 | 0.00 | 83 | 1010.4 |
| 20260905222522 | 17 | 18 | 3.2 | 8.0 | 0.00 | 0.00 | 0.00 | 82 | 1010.4 |
| 20260905221022 | 17 | 87 | 1.6 | 3.2 | 0.00 | 0.00 | 0.00 | 82 | 1010.4 |
| 20260905220523 | 18 | 185 | 1.6 | 9.7 | 0.00 | 0.00 | 0.00 | 81 | 1010.2 |
| 20260905220022 | 18 | 96 | 3.2 | 4.8 | 0.00 | 0.00 | 0.00 | 80 | 1010.2 |
| 20260905215022 | 18 | 138 | 3.2 | 9.7 | 0.00 | 0.00 | 0.00 | 80 | 1010.0 |
| 20260905214023 | 18 | 126 | 4.8 | 9.7 | 0.00 | 0.00 | 0.00 | 79 | 1009.8 |
| 20260905213522 | 18 | 43 | 4.8 | 11.3 | 0.00 | 0.00 | 0.00 | 78 | 1009.6 |
| 20260905213022 | 18 | 123 | 1.6 | 11.3 | 0.00 | 0.00 | 0.00 | 78 | 1009.6 |
| 20260905212523 | 18 | 101 | 1.6 | 11.3 | 0.00 | 0.00 | 0.00 | 77 | 1009.5 |
| 20260905212022 | 18 | 198 | 1.6 | 9.7 | 0.00 | 0.00 | 0.00 | 77 | 1009.5 |
| 20260905211022 | 19 | 54 | 1.6 | 11.3 | 0.00 | 0.00 | 0.00 | 75 | 1009.5 |
| 20260905210522 | 19 | 153 | 3.2 | 4.8 | 0.00 | 0.00 | 0.00 | 76 | 1009.5 |
| 20260905210023 | 19 | 38 | 3.2 | 9.7 | 0.00 | 0.00 | 0.00 | 76 | 1009.5 |
| 20260905205522 | 19 | 64 | 3.2 | 11.3 | 0.00 | 0.00 | 0.00 | 75 | 1009.3 |
| 20260905205022 | 20 | 16 | 3.2 | 11.3 | 0.00 | 0.00 | 0.00 | 75 | 1009.4 |
| 20260905204522 | 20 | 137 | 3.2 | 9.7 | 0.00 | 0.00 | 0.00 | 73 | 1009.2 |
| 20260905204023 | 20 | 92 | 1.6 | 9.7 | 0.00 | 0.00 | 0.00 | 75 | 1009.2 |
| 20260905203522 | 20 | 265 | 1.6 | 4.8 | 0.00 | 0.00 | 0.00 | 77 | 1009.2 |
| 20260905203022 | 20 | 192 | 3.2 | 9.7 | 0.00 | 0.00 | 0.00 | 75 | 1009.2 |
| 20260905202522 | 20 | 54 | 3.2 | 9.7 | 0.00 | 0.00 | 0.00 | 72 | 1009.1 |
| 20260905202022 | 20 | 175 | 1.6 | 3.2 | 0.00 | 0.00 | 0.00 | 75 | 1009.1 |
| 20260905201522 | 19 | 219 | 3.2 | 8.0 | 0.00 | 0.00 | 0.00 | 78 | 1009.1 |
| 20260905201022 | 19 | 65 | 3.2 | 9.7 | 0.00 | 0.00 | 0.00 | 79 | 1009.2 |
| 20260905200522 | 19 | 37 | 3.2 | 8.0 | 0.00 | 0.00 | 0.00 | 78 | 1009.2 |
| 20260905200022 | 19 | 117 | 1.6 | 4.8 | 0.00 | 0.00 | 0.00 | 78 | 1009.1 |
| 20260905195521 | 19 | 193 | 0.0 | 4.8 | 0.00 | 0.00 | 0.00 | 78 | 1009.0 |
| 20260905195022 | 18 | 65 | 1.6 | 3.2 | 0.00 | 0.00 | 0.00 | 78 | 1009.0 |
| 20260905194522 | 18 | 57 | 3.2 | 4.8 | 0.00 | 0.00 | 0.00 | 80 | 1009.0 |
| 20260905194022 | 18 | 155 | 1.6 | 9.7 | 0.00 | 0.00 | 0.00 | 82 | 1009.0 |
| 20260905193522 | 18 | 181 | 1.6 | 8.0 | 0.00 | 0.00 | 0.00 | 80 | 1009.0 |
| 20260905193022 | 18 | 173 | 1.6 | 11.3 | 0.00 | 0.00 | 0.00 | 81 | 1009.0 |
| 20260905192522 | 19 | 101 | 3.2 | 11.3 | 0.00 | 0.00 | 0.00 | 80 | 1009.1 |
| 20260905192022 | 19 | 333 | 3.2 | 11.3 | 0.00 | 0.00 | 0.00 | 81 | 1009.1 |
| 20260905191522 | 19 | 100 | 3.2 | 8.0 | 0.00 | 0.00 | 0.00 | 80 | 1009.0 |
| 20260905191021 | 19 | 80 | 3.2 | 12.9 | 0.00 | 0.00 | 0.00 | 78 | 1009.0 |
| 20260905190522 | 20 | 123 | 1.6 | 9.7 | 0.00 | 0.00 | 0.00 | 76 | 1009.0 |
| 20260905190022 | 21 | 111 | 3.2 | 11.3 | 0.00 | 0.00 | 0.00 | 75 | 1009.0 |
| 20260905185522 | 21 | 231 | 1.6 | 12.9 | 0.00 | 0.00 | 0.00 | 77 | 1008.8 |
| 20260905185022 | 21 | 35 | 1.6 | 9.7 | 0.00 | 0.00 | 0.00 | 77 | 1009.0 |
| 20260905184521 | 20 | 76 | 3.2 | 11.3 | 0.00 | 0.00 | 0.00 | 75 | 1009.0 |
| 20260905184022 | 21 | 46 | 3.2 | 11.3 | 0.00 | 0.00 | 0.00 | 73 | 1009.0 |
| 20260905183521 | 21 | 56 | 4.8 | 12.9 | 0.00 | 0.00 | 0.00 | 74 | 1009.0 |
| 20260905183022 | 21 | 98 | 8.0 | 16.1 | 0.00 | 0.00 | 0.00 | 72 | 1009.0 |
| 20260905182022 | 22 | 79 | 3.2 | 8.0 | 0.00 | 0.00 | 0.00 | 69 | 1008.9 |
| 20260905181522 | 21 | 235 | 6.4 | 14.5 | 0.00 | 0.00 | 0.00 | 73 | 1009.0 |
| 20260905181021 | 21 | 104 | 3.2 | 8.0 | 0.00 | 0.00 | 0.00 | 75 | 1009.0 |
| 20260905180522 | 21 | 109 | 3.2 | 9.7 | 0.00 | 0.00 | 0.00 | 71 | 1009.0 |
| 20260905180021 | 21 | 114 | 0.0 | 4.8 | 0.00 | 0.00 | 0.00 | 70 | 1009.0 |
| 20260905175522 | 21 | 47 | 1.6 | 4.8 | 0.00 | 0.00 | 0.00 | 74 | 1009.0 |
| 20260905175021 | 21 | 188 | 0.0 | 11.3 | 0.00 | 0.00 | 0.00 | 72 | 1008.8 |
| 20260905174522 | 21 | 11 | 1.6 | 4.8 | 0.00 | 0.00 | 0.00 | 71 | 1008.8 |
| 20260905173521 | 20 | 180 | 1.6 | 8.0 | 0.00 | 0.00 | 0.00 | 72 | 1008.9 |
| 20260905172521 | 20 | 354 | 3.2 | 11.3 | 0.00 | 0.00 | 0.00 | 73 | 1008.7 |
| 20260905172021 | 20 | 343 | 1.6 | 3.2 | 0.00 | 0.00 | 0.00 | 73 | 1008.7 |
| 20260905171522 | 20 | 63 | 0.0 | 4.8 | 0.00 | 0.00 | 0.00 | 76 | 1008.7 |
| 20260905171022 | 20 | 22 | 1.6 | 3.2 | 0.00 | 0.00 | 0.00 | 74 | 1008.7 |
| 20260905170521 | 20 | 20 | 0.0 | 3.2 | 0.00 | 0.00 | 0.00 | 72 | 1008.6 |
| 20260905170021 | 20 | 63 | 6.4 | 12.9 | 0.00 | 0.00 | 0.00 | 72 | 1008.6 |
| 20260905165522 | 20 | 16 | 3.2 | 8.0 | 0.00 | 0.00 | 0.00 | 71 | 1008.5 |
| 20260905165022 | 21 | 199 | 3.2 | 8.0 | 0.00 | 0.00 | 0.00 | 71 | 1008.5 |
| 20260905164521 | 21 | 126 | 3.2 | 8.0 | 0.00 | 0.00 | 0.00 | 69 | 1008.4 |
| 20260905164022 | 21 | 265 | 3.2 | 12.9 | 0.00 | 0.00 | 0.00 | 70 | 1008.4 |
| 20260905163521 | 21 | 175 | 4.8 | 9.7 | 0.00 | 0.00 | 0.00 | 69 | 1008.5 |
| 20260905163021 | 21 | 342 | 6.4 | 11.3 | 0.00 | 0.00 | 0.00 | 68 | 1008.5 |
| 20260905162521 | 21 | 59 | 4.8 | 9.7 | 0.00 | 0.00 | 0.00 | 68 | 1008.4 |
| 20260905161521 | 21 | 14 | 3.2 | 8.0 | 0.00 | 0.00 | 0.00 | 69 | 1008.4 |
| 20260905161022 | 21 | 113 | 1.6 | 9.7 | 0.00 | 0.00 | 0.00 | 71 | 1008.4 |
| 20260905160521 | 21 | 49 | 1.6 | 3.2 | 0.00 | 0.00 | 0.00 | 71 | 1008.4 |
| 20260905160022 | 21 | 92 | 1.6 | 4.8 | 0.00 | 0.00 | 0.00 | 72 | 1008.5 |
| 20260905155521 | 21 | 39 | 3.2 | 9.7 | 0.00 | 0.00 | 0.00 | 70 | 1008.5 |
| 20260905155021 | 21 | 21 | 3.2 | 11.3 | 0.00 | 0.00 | 0.00 | 68 | 1008.4 |
| 20260905154522 | 21 | 112 | 3.2 | 9.7 | 0.00 | 0.00 | 0.00 | 68 | 1008.4 |
| 20260905154021 | 21 | 298 | 3.2 | 8.0 | 0.00 | 0.00 | 0.00 | 72 | 1008.4 |
| 20260905153521 | 20 | 33 | 3.2 | 11.3 | 0.00 | 0.00 | 0.00 | 73 | 1008.4 |
| 20260905153022 | 20 | 49 | 4.8 | 9.7 | 0.00 | 0.00 | 0.00 | 72 | 1008.4 |
| 20260905152521 | 21 | 8 | 4.8 | 11.3 | 0.00 | 0.00 | 0.00 | 69 | 1008.4 |
| 20260905151521 | 21 | 24 | 3.2 | 8.0 | 0.00 | 0.00 | 0.00 | 71 | 1008.5 |
| 20260905151021 | 21 | 45 | 1.6 | 8.0 | 0.00 | 0.00 | 0.00 | 72 | 1008.4 |
| 20260905150522 | 21 | 61 | 3.2 | 11.3 | 0.00 | 0.00 | 0.00 | 71 | 1008.4 |
| 20260905145521 | 21 | 86 | 4.8 | 9.7 | 0.00 | 0.00 | 0.00 | 71 | 1008.4 |
| 20260905145021 | 21 | 108 | 4.8 | 11.3 | 0.00 | 0.00 | 0.00 | 70 | 1008.3 |
| 20260905144521 | 20 | 15 | 3.2 | 9.7 | 0.00 | 0.00 | 0.00 | 73 | 1008.4 |
| 20260905143521 | 20 | 11 | 3.2 | 12.9 | 0.00 | 0.00 | 0.00 | 73 | 1008.3 |
| 20260905143021 | 20 | 38 | 3.2 | 11.3 | 0.00 | 0.00 | 0.00 | 74 | 1008.3 |
| 20260905142521 | 20 | 18 | 4.8 | 12.9 | 0.00 | 0.00 | 0.00 | 74 | 1008.4 |
| 20260905142021 | 20 | 107 | 3.2 | 11.3 | 0.00 | 0.00 | 0.00 | 73 | 1008.4 |
| 20260905141521 | 20 | 6 | 3.2 | 14.5 | 0.00 | 0.00 | 0.00 | 73 | 1008.3 |
| 20260905141021 | 21 | 78 | 6.4 | 14.5 | 0.00 | 0.00 | 0.00 | 71 | 1008.3 |
| 20260905140521 | 22 | 88 | 4.8 | 12.9 | 0.00 | 0.00 | 0.00 | 66 | 1008.3 |
| 20260905135521 | 20 | 46 | 3.2 | 12.9 | 0.00 | 0.00 | 0.00 | 72 | 1008.4 |
| 20260905135021 | 20 | 15 | 4.8 | 12.9 | 0.00 | 0.00 | 0.00 | 74 | 1008.4 |
| 20260905134521 | 20 | 71 | 3.2 | 4.8 | 0.00 | 0.00 | 0.00 | 75 | 1008.5 |
| 20260905134020 | 20 | 39 | 3.2 | 11.3 | 0.00 | 0.00 | 0.00 | 76 | 1008.6 |
| 20260905133521 | 20 | 35 | 1.6 | 8.0 | 0.00 | 0.00 | 0.00 | 76 | 1008.6 |
| 20260905132520 | 20 | 141 | 3.2 | 9.7 | 0.00 | 0.00 | 0.00 | 72 | 1008.5 |
| 20260905131521 | 21 | 32 | 3.2 | 11.3 | 0.00 | 0.00 | 0.00 | 71 | 1008.3 |
| 20260905131021 | 20 | 280 | 1.6 | 9.7 | 0.00 | 0.00 | 0.00 | 72 | 1008.3 |
| 20260905130521 | 20 | 224 | 3.2 | 11.3 | 0.00 | 0.00 | 0.00 | 72 | 1008.2 |
| 20260905125020 | 19 | 295 | 1.6 | 4.8 | 0.00 | 0.00 | 0.00 | 78 | 1008.1 |
| 20260905124521 | 18 | 247 | 1.6 | 4.8 | 0.00 | 0.00 | 0.00 | 78 | 1008.1 |
| 20260905124021 | 18 | 140 | 1.6 | 11.3 | 0.00 | 0.00 | 0.00 | 79 | 1008.1 |
| 20260905123521 | 18 | 233 | 3.2 | 12.9 | 0.00 | 0.00 | 0.00 | 79 | 1007.9 |
| 20260905123020 | 18 | 215 | 1.6 | 8.0 | 0.00 | 0.00 | 0.00 | 79 | 1007.9 |
| 20260905122521 | 18 | 112 | 3.2 | 4.8 | 0.00 | 0.00 | 0.00 | 78 | 1007.9 |
| 20260905122021 | 18 | 247 | 3.2 | 8.0 | 0.00 | 0.00 | 0.00 | 79 | 1007.9 |
| 20260905121521 | 18 | 252 | 1.6 | 9.7 | 0.00 | 0.00 | 0.00 | 80 | 1007.9 |
| 20260905121021 | 18 | 173 | 1.6 | 4.8 | 0.00 | 0.00 | 0.00 | 80 | 1007.8 |
| 20260905120521 | 18 | 359 | 1.6 | 11.3 | 0.00 | 0.00 | 0.00 | 82 | 1007.7 |
| 20260905120021 | 17 | 194 | 1.6 | 8.0 | 0.00 | 0.00 | 0.00 | 82 | 1007.8 |
| 20260905115521 | 17 | 205 | 1.6 | 8.0 | 0.00 | 0.00 | 0.00 | 83 | 1007.8 |
| 20260905115021 | 17 | 253 | 0.0 | 4.8 | 0.00 | 0.00 | 0.00 | 84 | 1007.8 |
| 20260905114520 | 17 | 275 | 1.6 | 8.0 | 0.00 | 0.00 | 0.00 | 85 | 1007.8 |
| 20260905114020 | 17 | 254 | 0.0 | 1.6 | 0.00 | 0.00 | 0.00 | 86 | 1007.8 |
| 20260905113521 | 17 | 255 | 1.6 | 3.2 | 0.00 | 0.00 | 0.00 | 86 | 1007.5 |
| 20260905113021 | 16 | 231 | 1.6 | 3.2 | 0.00 | 0.00 | 0.00 | 86 | 1007.5 |
| 20260905112020 | 16 | 257 | 1.6 | 4.8 | 0.00 | 0.00 | 0.00 | 87 | 1007.4 |
| 20260905110520 | 16 | 223 | 1.6 | 3.2 | 0.00 | 0.00 | 0.00 | 89 | 1007.4 |
| 20260905105520 | 16 | 251 | 1.6 | 4.8 | 0.00 | 0.00 | 0.00 | 89 | 1007.3 |
| 20260905105021 | 16 | 253 | 1.6 | 3.2 | 0.00 | 0.00 | 0.00 | 89 | 1007.1 |
| 20260905104521 | 16 | 314 | 1.6 | 4.8 | 0.00 | 0.00 | 0.00 | 89 | 1007.0 |
| 20260905104021 | 16 | 276 | 1.6 | 4.8 | 0.00 | 0.00 | 0.00 | 89 | 1007.0 |
| 20260905103520 | 16 | 221 | 1.6 | 4.8 | 0.00 | 0.00 | 0.00 | 89 | 1007.1 |
| 20260905103021 | 16 | 295 | 1.6 | 4.8 | 0.00 | 0.00 | 0.00 | 88 | 1007.0 |
| 20260905102520 | 16 | 247 | 1.6 | 4.8 | 0.00 | 0.00 | 0.00 | 89 | 1007.1 |
| 20260905102020 | 16 | 329 | 1.6 | 4.8 | 0.00 | 0.00 | 0.00 | 88 | 1007.2 |
| 20260905101020 | 16 | 268 | 1.6 | 1.6 | 0.00 | 0.00 | 0.00 | 88 | 1007.1 |
| 20260905100521 | 16 | 259 | 1.6 | 1.6 | 0.00 | 0.00 | 0.00 | 88 | 1007.1 |
| 20260905100021 | 16 | 272 | 1.6 | 4.8 | 0.00 | 0.00 | 0.00 | 88 | 1007.1 |
| 20260905095020 | 16 | 282 | 1.6 | 4.8 | 0.00 | 0.00 | 0.00 | 88 | 1007.1 |
| 20260905093520 | 16 | 254 | 1.6 | 3.2 | 0.00 | 0.00 | 0.00 | 88 | 1007.0 |
| 20260905093020 | 16 | 271 | 1.6 | 3.2 | 0.00 | 0.00 | 0.00 | 88 | 1007.0 |
| 20260905092520 | 16 | 251 | 1.6 | 3.2 | 0.00 | 0.00 | 0.00 | 88 | 1006.9 |
| 20260905092020 | 16 | 282 | 0.0 | 1.6 | 0.00 | 0.00 | 0.00 | 87 | 1007.0 |
| 20260905091521 | 16 | 256 | 1.6 | 3.2 | 0.00 | 0.00 | 0.00 | 87 | 1007.0 |
| 20260905091020 | 16 | 254 | 1.6 | 1.6 | 0.00 | 0.00 | 0.00 | 87 | 1006.9 |
| 20260905090520 | 16 | 265 | 1.6 | 4.8 | 0.00 | 0.00 | 0.00 | 86 | 1006.9 |
| 20260905090020 | 16 | 278 | 0.0 | 4.8 | 0.00 | 0.00 | 0.00 | 86 | 1006.9 |
| 20260905085520 | 16 | 282 | 1.6 | 3.2 | 0.00 | 0.00 | 0.00 | 86 | 1006.9 |
| 20260905085020 | 16 | 297 | 1.6 | 3.2 | 0.00 | 0.00 | 0.00 | 87 | 1006.9 |
| 20260905084521 | 16 | 249 | 1.6 | 3.2 | 0.00 | 0.00 | 0.00 | 87 | 1006.9 |
| 20260905084021 | 16 | 272 | 1.6 | 3.2 | 0.00 | 0.00 | 0.00 | 86 | 1006.9 |
| 20260905083020 | 16 | 253 | 1.6 | 3.2 | 0.00 | 0.00 | 0.00 | 87 | 1006.8 |
| 20260905082020 | 16 | 250 | 0.0 | 4.8 | 0.00 | 0.00 | 0.00 | 86 | 1006.7 |
| 20260905081520 | 16 | 273 | 1.6 | 3.2 | 0.00 | 0.00 | 0.00 | 86 | 1006.7 |
| 20260905081020 | 16 | 226 | 1.6 | 4.8 | 0.00 | 0.00 | 0.00 | 86 | 1006.9 |
| 20260905080520 | 16 | 235 | 1.6 | 3.2 | 0.00 | 0.00 | 0.00 | 86 | 1006.7 |
| 20260905080020 | 16 | 231 | 1.6 | 3.2 | 0.00 | 0.00 | 0.00 | 86 | 1006.9 |
| 20260905075520 | 16 | 255 | 1.6 | 3.2 | 0.00 | 0.00 | 0.00 | 87 | 1006.9 |
| 20260905075020 | 16 | 273 | 1.6 | 8.0 | 0.00 | 0.00 | 0.00 | 87 | 1006.9 |
| 20260905074020 | 16 | 254 | 1.6 | 8.0 | 0.00 | 0.00 | 0.00 | 87 | 1006.9 |
| 20260905073520 | 16 | 268 | 0.0 | 3.2 | 0.00 | 0.00 | 0.00 | 86 | 1006.9 |
| 20260905073020 | 16 | 271 | 1.6 | 8.0 | 0.00 | 0.00 | 0.00 | 87 | 1006.9 |
| 20260905071020 | 17 | 307 | 1.6 | 3.2 | 0.00 | 0.00 | 0.00 | 86 | 1007.1 |